TNO5555 YMMB-NSTU

Flight info

Callsign TNO5555
Flight time 6h 0m
Altitude 37000
Route DOSEL Y59 TESAT B450 DOLSI/N0453F390 B450 TUT H969 CLAIB
Aircraft A20N/M-SDE2E3FGHIRWXY/LB1

Departure

Time 2026-04-26 16:45
Airport Melbourne Moorabbin Airport (YMMB)

Arrival

Time 2026-04-26 22:46
Airport Pago Pago International Airport (NSTU)
Time Latitude Longitude Altitude Speed Heading
2026-04-26 16:45 -38.00492 145.13086 831 ft 215 kts 143°
2026-04-26 16:45 -38.01703 145.14333 1439 ft 231 kts 133°
2026-04-26 16:46 -38.02379 145.16197 2023 ft 245 kts 95°
2026-04-26 16:46 -38.01999 145.18315 2594 ft 255 kts 57°
2026-04-26 16:46 -38.00665 145.19757 3318 ft 255 kts 19°
2026-04-26 16:46 -37.98946 145.19905 4152 ft 249 kts 343°
2026-04-26 16:47 -37.97454 145.18855 4996 ft 247 kts 321°
2026-04-26 16:47 -37.96170 145.17412 5803 ft 248 kts 319°
2026-04-26 16:47 -37.94836 145.16057 6537 ft 252 kts 331°
2026-04-26 16:47 -37.93135 145.15518 7237 ft 259 kts 356°
2026-04-26 16:48 -37.91319 145.15751 7960 ft 267 kts
2026-04-26 16:48 -37.89499 145.16372 8668 ft 274 kts 14°
2026-04-26 16:48 -37.87670 145.17142 9374 ft 280 kts 14°
2026-04-26 16:48 -37.85807 145.17926 10041 ft 285 kts 14°
2026-04-26 16:49 -37.83894 145.18674 10552 ft 294 kts 12°
2026-04-26 16:49 -37.81862 145.19395 10821 ft 313 kts 11°
2026-04-26 16:49 -37.79723 145.20098 11068 ft 331 kts 11°
2026-04-26 16:49 -37.77442 145.20826 11452 ft 344 kts 10°
2026-04-26 16:50 -37.75098 145.21551 12066 ft 349 kts 10°
2026-04-26 16:50 -37.72729 145.22278 12774 ft 352 kts 10°
2026-04-26 16:50 -37.70359 145.23005 13522 ft 355 kts
2026-04-26 16:50 -37.67954 145.23744 14222 ft 357 kts
2026-04-26 16:51 -37.65523 145.24489 14778 ft 362 kts 10°
2026-04-26 16:51 -37.63056 145.25242 15299 ft 368 kts 10°
2026-04-26 16:51 -37.60553 145.26009 15832 ft 372 kts 10°
2026-04-26 16:51 -37.58054 145.26781 16384 ft 377 kts 11°
2026-04-26 16:52 -37.55491 145.27575 16967 ft 381 kts 11°
2026-04-26 16:52 -37.54617 145.27846 17171 ft 382 kts 11°
2026-04-26 16:52 -37.50276 145.29186 18096 ft 390 kts 11°
2026-04-26 16:52 -37.47623 145.30004 18643 ft 394 kts 11°
2026-04-26 16:53 -37.44945 145.30827 19124 ft 398 kts 11°
2026-04-26 16:53 -37.42238 145.31656 19585 ft 402 kts 11°
2026-04-26 16:53 -37.39509 145.32491 20050 ft 406 kts 11°
2026-04-26 16:53 -37.36755 145.33333 20509 ft 409 kts 11°
2026-04-26 16:54 -37.34015 145.34172 20965 ft 413 kts 11°
2026-04-26 16:54 -37.31210 145.35031 21429 ft 416 kts 11°
2026-04-26 16:54 -37.28390 145.35896 21877 ft 420 kts 11°
2026-04-26 16:54 -37.25538 145.36769 22320 ft 423 kts 11°
2026-04-26 16:55 -37.22674 145.37677 22756 ft 428 kts 14°
2026-04-26 16:55 -37.19863 145.38972 23171 ft 434 kts 22°
2026-04-26 16:55 -37.17224 145.40849 23601 ft 441 kts 33°
2026-04-26 16:55 -37.14884 145.43367 23988 ft 447 kts 45°
2026-04-26 16:56 -37.11142 145.49626 24834 ft 451 kts 55°
2026-04-26 16:56 -37.09465 145.52892 25183 ft 454 kts 57°
2026-04-26 16:56 -37.07793 145.56252 25598 ft 455 kts 57°
2026-04-26 16:57 -37.06122 145.59623 25972 ft 457 kts 57°
2026-04-26 16:57 -37.04432 145.63000 26296 ft 459 kts 57°
2026-04-26 16:57 -37.00990 145.69771 26986 ft 463 kts 56°
2026-04-26 16:58 -36.99243 145.73166 27313 ft 465 kts 56°
2026-04-26 16:58 -36.98672 145.74272 27418 ft 466 kts 56°
2026-04-26 16:58 -36.93961 145.83372 28264 ft 471 kts 56°
2026-04-26 16:59 -36.92176 145.86815 28565 ft 473 kts 56°
2026-04-26 16:59 -36.88593 145.93719 29327 ft 473 kts 56°
2026-04-26 17:00 -36.85013 146.00607 30125 ft 472 kts 56°
2026-04-26 17:00 -36.81458 146.07432 30814 ft 471 kts 55°
2026-04-26 17:00 -36.79674 146.10853 31172 ft 470 kts 55°
2026-04-26 17:01 -36.77893 146.14262 31467 ft 469 kts 55°
2026-04-26 17:01 -36.76113 146.17668 31759 ft 469 kts 55°
2026-04-26 17:01 -36.74330 146.21076 32050 ft 468 kts 55°
2026-04-26 17:01 -36.72551 146.24472 32336 ft 468 kts 55°
2026-04-26 17:02 -36.70769 146.27872 32612 ft 468 kts 55°
2026-04-26 17:02 -36.68989 146.31262 32894 ft 468 kts 55°
2026-04-26 17:02 -36.67211 146.34647 33172 ft 467 kts 55°
2026-04-26 17:02 -36.65455 146.37985 33418 ft 467 kts 55°
2026-04-26 17:03 -36.63675 146.41366 33631 ft 467 kts 55°
2026-04-26 17:03 -36.61891 146.44750 33850 ft 467 kts 55°
2026-04-26 17:03 -36.60109 146.48128 34075 ft 467 kts 55°
2026-04-26 17:03 -36.58325 146.51508 34283 ft 467 kts 55°
2026-04-26 17:04 -36.56536 146.54893 34481 ft 467 kts 55°
2026-04-26 17:04 -36.54750 146.58268 34665 ft 467 kts 55°
2026-04-26 17:04 -36.52965 146.61640 34836 ft 467 kts 55°
2026-04-26 17:04 -36.51199 146.64970 34994 ft 467 kts 55°
2026-04-26 17:05 -36.49410 146.68342 35121 ft 468 kts 55°
2026-04-26 17:05 -36.47615 146.71720 35296 ft 468 kts 55°
2026-04-26 17:05 -36.45823 146.75090 35485 ft 467 kts 55°
2026-04-26 17:05 -36.44034 146.78452 35640 ft 467 kts 55°
2026-04-26 17:06 -36.42241 146.81816 35800 ft 467 kts 55°
2026-04-26 17:06 -36.40448 146.85180 35960 ft 467 kts 55°
2026-04-26 17:06 -36.38658 146.88533 36108 ft 466 kts 55°
2026-04-26 17:06 -36.36893 146.91836 36300 ft 465 kts 55°
2026-04-26 17:07 -36.35107 146.95175 36478 ft 464 kts 55°
2026-04-26 17:07 -36.33322 146.98509 36599 ft 464 kts 55°
2026-04-26 17:07 -36.31537 147.01844 36719 ft 464 kts 55°
2026-04-26 17:07 -36.29750 147.05175 36846 ft 464 kts 55°
2026-04-26 17:08 -36.27962 147.08505 36978 ft 464 kts 55°
2026-04-26 17:08 -36.26178 147.11823 37114 ft 463 kts 55°
2026-04-26 17:08 -36.24389 147.15146 37247 ft 463 kts 55°
2026-04-26 17:08 -36.22605 147.18457 37270 ft 462 kts 55°
2026-04-26 17:09 -36.20242 147.22841 37275 ft 461 kts 55°
2026-04-26 17:09 -36.15505 147.31613 37279 ft 460 kts 55°
2026-04-26 17:10 -36.11944 147.38192 37278 ft 460 kts 56°
2026-04-26 17:10 -36.08981 147.43653 37281 ft 459 kts 55°
2026-04-26 17:11 -36.05426 147.50197 37287 ft 458 kts 55°
2026-04-26 17:11 -36.01873 147.56726 37288 ft 458 kts 55°
2026-04-26 17:12 -35.95957 147.67567 37295 ft 458 kts 55°
2026-04-26 17:13 -35.91215 147.76234 37296 ft 458 kts 55°
2026-04-26 17:14 -35.85860 147.85993 37297 ft 458 kts 55°
2026-04-26 17:14 -35.80499 147.95736 37304 ft 458 kts 55°
2026-04-26 17:15 -35.75148 148.05435 37311 ft 458 kts 55°
2026-04-26 17:16 -35.71561 148.11920 37310 ft 458 kts 55°
2026-04-26 17:16 -35.67970 148.18401 37316 ft 458 kts 56°
2026-04-26 17:17 -35.64375 148.24877 37315 ft 458 kts 56°
2026-04-26 17:17 -35.60801 148.31301 37323 ft 458 kts 55°
2026-04-26 17:18 -35.57202 148.37761 37321 ft 458 kts 56°
2026-04-26 17:18 -35.53598 148.44218 37331 ft 458 kts 56°
2026-04-26 17:19 -35.48194 148.53876 37332 ft 457 kts 55°
2026-04-26 17:19 -35.44612 148.60263 37337 ft 457 kts 55°
2026-04-26 17:20 -35.41615 148.65597 37334 ft 457 kts 56°
2026-04-26 17:20 -35.37404 148.73080 37338 ft 456 kts 56°
2026-04-26 17:21 -35.33801 148.79470 37337 ft 456 kts 55°
2026-04-26 17:21 -35.30224 148.85805 37339 ft 455 kts 55°
2026-04-26 17:22 -35.26622 148.92173 37334 ft 455 kts 56°
2026-04-26 17:22 -35.23017 148.98534 37334 ft 455 kts 55°
2026-04-26 17:23 -35.19434 149.04843 37331 ft 455 kts 55°
2026-04-26 17:23 -35.15825 149.11184 37302 ft 455 kts 55°
2026-04-26 17:24 -35.12209 149.17524 37324 ft 455 kts 55°
2026-04-26 17:24 -35.08591 149.23853 37321 ft 455 kts 55°
2026-04-26 17:25 -35.04969 149.30182 37315 ft 455 kts 55°
2026-04-26 17:25 -35.01345 149.36504 37313 ft 455 kts 55°
2026-04-26 17:26 -34.97718 149.42822 37307 ft 455 kts 56°
2026-04-26 17:26 -34.94113 149.49089 37308 ft 455 kts 56°
2026-04-26 17:27 -34.90479 149.55396 37309 ft 455 kts 55°
2026-04-26 17:27 -34.86843 149.61695 37317 ft 454 kts 55°
2026-04-26 17:28 -34.83207 149.67982 37309 ft 454 kts 56°
2026-04-26 17:28 -34.79573 149.74256 37314 ft 453 kts 56°
2026-04-26 17:29 -34.76553 149.79461 37314 ft 453 kts 55°
2026-04-26 17:29 -34.72323 149.86737 37315 ft 453 kts 55°
2026-04-26 17:30 -34.68681 149.92991 37308 ft 453 kts 55°
2026-04-26 17:30 -34.65045 149.99224 37318 ft 452 kts 55°
2026-04-26 17:31 -34.61432 150.05406 37317 ft 452 kts 55°
2026-04-26 17:31 -34.57797 150.11616 37307 ft 452 kts 55°
2026-04-26 17:32 -34.54154 150.17828 37305 ft 452 kts 55°
2026-04-26 17:32 -34.50514 150.24025 37300 ft 451 kts 55°
2026-04-26 17:33 -34.46871 150.30215 37292 ft 451 kts 55°
2026-04-26 17:34 -34.41409 150.39476 37292 ft 451 kts 55°
2026-04-26 17:34 -34.37758 150.45654 37284 ft 451 kts 55°
2026-04-26 17:35 -34.34134 150.51775 37293 ft 450 kts 55°
2026-04-26 17:35 -34.30486 150.57927 37282 ft 450 kts 55°
2026-04-26 17:36 -34.26832 150.64077 37269 ft 450 kts 55°
2026-04-26 17:36 -34.23180 150.70216 37276 ft 450 kts 55°
2026-04-26 17:37 -34.19520 150.76356 37265 ft 450 kts 55°
2026-04-26 17:37 -34.15866 150.82476 37269 ft 449 kts 55°
2026-04-26 17:38 -34.10407 150.91598 37262 ft 449 kts 54°
2026-04-26 17:38 -34.06749 150.97699 37264 ft 449 kts 54°
2026-04-26 17:39 -34.03087 151.03796 37264 ft 448 kts 54°
2026-04-26 17:39 -33.99429 151.09876 37265 ft 448 kts 54°
2026-04-26 17:40 -33.96392 151.14916 37265 ft 447 kts 54°
2026-04-26 17:40 -33.94271 151.19154 37268 ft 445 kts 68°
2026-04-26 17:40 -33.93102 151.22599 37267 ft 445 kts 70°
2026-04-26 17:41 -33.90914 151.29578 37264 ft 446 kts 70°
2026-04-26 17:41 -33.88755 151.36571 37261 ft 445 kts 70°
2026-04-26 17:42 -33.86600 151.43556 37258 ft 445 kts 70°
2026-04-26 17:42 -33.84459 151.50478 37253 ft 445 kts 70°
2026-04-26 17:43 -33.82299 151.57451 37249 ft 445 kts 70°
2026-04-26 17:43 -33.80135 151.64416 37251 ft 445 kts 70°
2026-04-26 17:44 -33.77969 151.71376 37246 ft 444 kts 70°
2026-04-26 17:44 -33.75816 151.78277 37246 ft 444 kts 70°
2026-04-26 17:45 -33.73643 151.85224 37249 ft 444 kts 70°
2026-04-26 17:45 -33.71467 151.92166 37249 ft 444 kts 70°
2026-04-26 17:46 -33.69285 151.99111 37243 ft 444 kts 70°
2026-04-26 17:46 -33.67116 152.06000 37245 ft 444 kts 70°
2026-04-26 17:47 -33.65284 152.11806 37245 ft 444 kts 70°
2026-04-26 17:47 -33.62737 152.19859 37246 ft 444 kts 70°
2026-04-26 17:48 -33.60540 152.26788 37243 ft 444 kts 70°
2026-04-26 17:48 -33.58342 152.33707 37243 ft 444 kts 70°
2026-04-26 17:49 -33.56151 152.40585 37243 ft 444 kts 70°
2026-04-26 17:49 -33.53943 152.47502 37244 ft 444 kts 70°
2026-04-26 17:50 -33.51733 152.54413 37249 ft 444 kts 70°
2026-04-26 17:50 -33.49532 152.61275 37251 ft 444 kts 70°
2026-04-26 17:51 -33.47316 152.68173 37251 ft 444 kts 70°
2026-04-26 17:51 -33.45094 152.75072 37245 ft 444 kts 70°
2026-04-26 17:52 -33.42869 152.81965 37250 ft 444 kts 70°
2026-04-26 17:52 -33.40639 152.88859 37253 ft 444 kts 70°
2026-04-26 17:53 -33.38421 152.95701 37249 ft 444 kts 70°
2026-04-26 17:54 -33.35063 153.06032 37255 ft 444 kts 70°
2026-04-26 17:54 -33.32821 153.12912 37252 ft 444 kts 70°
2026-04-26 17:55 -33.30573 153.19794 37250 ft 444 kts 70°
2026-04-26 17:55 -33.28335 153.26630 37250 ft 444 kts 70°
2026-04-26 17:56 -33.26080 153.33501 37257 ft 444 kts 70°
2026-04-26 17:57 -33.21552 153.47244 37256 ft 445 kts 70°
2026-04-26 17:57 -33.19283 153.54114 37247 ft 445 kts 70°
2026-04-26 17:58 -33.14748 153.67797 37253 ft 445 kts 70°
2026-04-26 17:59 -33.11324 153.78087 37259 ft 445 kts 70°
2026-04-26 17:59 -33.09054 153.84892 37246 ft 444 kts 70°
2026-04-26 18:00 -33.06767 153.91736 37257 ft 444 kts 70°
2026-04-26 18:00 -33.04476 153.98572 37249 ft 444 kts 70°
2026-04-26 18:01 -33.02180 154.05411 37258 ft 444 kts 70°
2026-04-26 18:01 -32.99899 154.12191 37249 ft 444 kts 70°
2026-04-26 18:02 -32.97975 154.17899 37246 ft 443 kts 70°
2026-04-26 18:02 -32.95298 154.25822 37249 ft 444 kts 70°
2026-04-26 18:03 -32.92990 154.32638 37249 ft 444 kts 70°
2026-04-26 18:03 -32.90674 154.39464 37249 ft 444 kts 70°
2026-04-26 18:04 -32.88376 154.46221 37249 ft 443 kts 70°
2026-04-26 18:05 -32.84902 154.56410 37249 ft 443 kts 70°
2026-04-26 18:05 -32.82583 154.63195 37249 ft 443 kts 70°
2026-04-26 18:06 -32.80257 154.69986 37250 ft 443 kts 70°
2026-04-26 18:06 -32.77943 154.76727 37249 ft 444 kts 70°
2026-04-26 18:07 -32.75607 154.83517 37251 ft 444 kts 70°
2026-04-26 18:07 -32.73268 154.90303 37252 ft 444 kts 70°
2026-04-26 18:08 -32.70926 154.97082 37245 ft 444 kts 70°
2026-04-26 18:08 -32.68597 155.03810 37245 ft 443 kts 70°
2026-04-26 18:09 -32.66256 155.10558 37250 ft 442 kts 70°
2026-04-26 18:09 -32.63908 155.17316 37246 ft 444 kts 69°
2026-04-26 18:10 -32.61548 155.24090 37249 ft 445 kts 69°
2026-04-26 18:10 -32.59180 155.30874 37248 ft 445 kts 69°
2026-04-26 18:11 -32.56826 155.37606 37245 ft 445 kts 69°
2026-04-26 18:11 -32.54452 155.44378 37242 ft 445 kts 69°
2026-04-26 18:12 -32.52076 155.51145 37248 ft 445 kts 69°
2026-04-26 18:12 -32.49709 155.57871 37248 ft 445 kts 69°
2026-04-26 18:13 -32.47319 155.64650 37246 ft 446 kts 69°
2026-04-26 18:13 -32.44925 155.71423 37243 ft 446 kts 69°
2026-04-26 18:14 -32.42529 155.78191 37247 ft 446 kts 69°
2026-04-26 18:14 -32.40131 155.84949 37244 ft 446 kts 69°
2026-04-26 18:15 -32.37745 155.91661 37244 ft 446 kts 69°
2026-04-26 18:15 -32.35338 155.98418 37243 ft 445 kts 69°
2026-04-26 18:16 -32.32928 156.05168 37246 ft 447 kts 69°
2026-04-26 18:16 -32.29303 156.15300 37246 ft 448 kts 69°
2026-04-26 18:17 -32.26868 156.22085 37248 ft 448 kts 69°
2026-04-26 18:17 -32.24432 156.28863 37239 ft 448 kts 69°
2026-04-26 18:18 -32.21996 156.35623 37240 ft 447 kts 69°
2026-04-26 18:18 -32.19559 156.42376 37240 ft 447 kts 68°
2026-04-26 18:19 -32.17132 156.49085 37246 ft 448 kts 68°
2026-04-26 18:19 -32.14674 156.55869 37240 ft 450 kts 68°
2026-04-26 18:20 -32.12207 156.62662 37240 ft 450 kts 68°
2026-04-26 18:20 -32.10155 156.68303 37244 ft 450 kts 68°
2026-04-26 18:21 -32.07281 156.76187 37240 ft 450 kts 68°
2026-04-26 18:21 -32.04805 156.82964 37240 ft 450 kts 68°
2026-04-26 18:22 -32.02326 156.89738 37238 ft 450 kts 67°
2026-04-26 18:22 -31.99834 156.96531 37236 ft 454 kts 67°
2026-04-26 18:23 -31.97321 157.03368 37236 ft 455 kts 67°
2026-04-26 18:23 -31.94818 157.10165 37239 ft 455 kts 67°
2026-04-26 18:24 -31.92299 157.16993 37233 ft 455 kts 67°
2026-04-26 18:24 -31.89773 157.23823 37239 ft 455 kts 66°
2026-04-26 18:25 -31.87259 157.30609 37237 ft 455 kts 66°
2026-04-26 18:25 -31.84725 157.37439 37232 ft 456 kts 66°
2026-04-26 18:26 -31.82178 157.44291 37236 ft 458 kts 66°
2026-04-26 18:26 -31.79625 157.51145 37233 ft 458 kts 66°
2026-04-26 18:27 -31.77069 157.57992 37240 ft 457 kts 65°
2026-04-26 18:27 -31.74527 157.64784 37234 ft 457 kts 65°
2026-04-26 18:28 -31.71966 157.71616 37230 ft 457 kts 65°
2026-04-26 18:28 -31.69396 157.78450 37238 ft 457 kts 65°
2026-04-26 18:29 -31.66825 157.85280 37228 ft 458 kts 65°
2026-04-26 18:29 -31.64264 157.92070 37228 ft 457 kts 65°
2026-04-26 18:30 -31.61688 157.98886 37235 ft 457 kts 65°
2026-04-26 18:30 -31.59110 158.05697 37231 ft 457 kts 65°
2026-04-26 18:31 -31.56529 158.12500 37229 ft 457 kts 65°
2026-04-26 18:31 -31.53944 158.19300 37229 ft 457 kts 65°
2026-04-26 18:32 -31.51372 158.26054 37226 ft 456 kts 65°
2026-04-26 18:32 -31.48786 158.32831 37230 ft 456 kts 65°
2026-04-26 18:33 -31.46194 158.39611 37226 ft 456 kts 65°
2026-04-26 18:33 -31.43601 158.46382 37221 ft 456 kts 64°
2026-04-26 18:34 -31.41019 158.53109 37223 ft 456 kts 64°
2026-04-26 18:34 -31.38418 158.59875 37226 ft 456 kts 64°
2026-04-26 18:35 -31.35814 158.66634 37230 ft 456 kts 64°
2026-04-26 18:35 -31.33207 158.73386 37211 ft 456 kts 64°
2026-04-26 18:36 -31.30586 158.80166 37215 ft 458 kts 64°
2026-04-26 18:36 -31.27972 158.86911 37217 ft 459 kts 64°
2026-04-26 18:37 -31.25335 158.93704 37212 ft 459 kts 64°
2026-04-26 18:37 -31.22695 159.00492 37213 ft 459 kts 64°
2026-04-26 18:38 -31.20052 159.07274 37216 ft 458 kts 64°
2026-04-26 18:38 -31.17426 159.14001 37205 ft 458 kts 64°
2026-04-26 18:39 -31.14778 159.20770 37203 ft 459 kts 63°
2026-04-26 18:39 -31.12116 159.27561 37209 ft 461 kts 63°
2026-04-26 18:40 -31.09443 159.34368 37211 ft 462 kts 63°
2026-04-26 18:40 -31.06783 159.41130 37209 ft 462 kts 63°
2026-04-26 18:41 -31.04102 159.47934 37205 ft 461 kts 63°
2026-04-26 18:41 -31.01418 159.54730 37208 ft 461 kts 63°
2026-04-26 18:42 -30.98733 159.61515 37212 ft 461 kts 63°
2026-04-26 18:42 -30.96063 159.68252 37198 ft 461 kts 62°
2026-04-26 18:43 -30.93363 159.75050 37208 ft 463 kts 62°
2026-04-26 18:43 -30.90654 159.81860 37205 ft 464 kts 62°
2026-04-26 18:44 -30.87940 159.88667 37203 ft 463 kts 62°
2026-04-26 18:44 -30.85245 159.95417 37200 ft 463 kts 62°
2026-04-26 18:45 -30.82529 160.02205 37203 ft 463 kts 62°
2026-04-26 18:45 -30.79808 160.08992 37200 ft 463 kts 62°
2026-04-26 18:46 -30.77086 160.15770 37197 ft 463 kts 62°
2026-04-26 18:46 -30.74344 160.22582 37199 ft 466 kts 62°
2026-04-26 18:47 -30.71616 160.29352 37201 ft 465 kts 62°
2026-04-26 18:47 -30.68870 160.36152 37194 ft 465 kts 62°
2026-04-26 18:48 -30.66119 160.42950 37201 ft 465 kts 62°
2026-04-26 18:48 -30.63366 160.49740 37195 ft 465 kts 62°
2026-04-26 18:49 -30.60627 160.56485 37197 ft 465 kts 61°
2026-04-26 18:49 -30.57867 160.63269 37185 ft 465 kts 61°
2026-04-26 18:50 -30.55094 160.70070 37192 ft 467 kts 61°
2026-04-26 18:50 -30.52308 160.76892 37186 ft 468 kts 61°
2026-04-26 18:51 -30.49540 160.83660 37183 ft 468 kts 61°
2026-04-26 18:51 -30.46750 160.90468 37185 ft 468 kts 60°
2026-04-26 18:52 -30.43954 160.97276 37184 ft 468 kts 60°
2026-04-26 18:52 -30.41174 161.04033 37179 ft 468 kts 60°
2026-04-26 18:53 -30.38371 161.10835 37172 ft 468 kts 60°
2026-04-26 18:53 -30.35556 161.17651 37181 ft 470 kts 60°
2026-04-26 18:54 -30.32727 161.24491 37181 ft 471 kts 60°
2026-04-26 18:54 -30.29918 161.31269 37181 ft 470 kts 60°
2026-04-26 18:55 -30.27094 161.38073 37178 ft 469 kts 60°
2026-04-26 18:55 -30.24266 161.44872 37177 ft 469 kts 60°
2026-04-26 18:56 -30.21431 161.51675 37178 ft 469 kts 60°
2026-04-26 18:56 -30.18595 161.58469 37162 ft 470 kts 60°
2026-04-26 18:57 -30.16224 161.64138 37172 ft 473 kts 60°
2026-04-26 18:57 -30.12892 161.72095 37176 ft 474 kts 60°
2026-04-26 18:58 -30.10020 161.78943 37170 ft 474 kts 60°
2026-04-26 18:58 -30.07146 161.85781 37170 ft 474 kts 60°
2026-04-26 18:59 -30.04284 161.92576 37169 ft 474 kts 60°
2026-04-26 18:59 -30.01402 161.99403 37167 ft 473 kts 60°
2026-04-26 19:00 -29.98516 162.06230 37153 ft 474 kts 59°
2026-04-26 19:00 -29.95618 162.13072 37167 ft 476 kts 59°
2026-04-26 19:01 -29.92727 162.19886 37166 ft 476 kts 59°
2026-04-26 19:01 -29.89812 162.26745 37155 ft 476 kts 59°
2026-04-26 19:02 -29.86896 162.33594 37161 ft 476 kts 59°
2026-04-26 19:02 -29.84473 162.39275 37163 ft 475 kts 59°
2026-04-26 19:03 -29.81063 162.47255 37158 ft 475 kts 59°
2026-04-26 19:03 -29.78162 162.54033 37150 ft 475 kts 59°
2026-04-26 19:04 -29.75236 162.60855 37149 ft 475 kts 59°
2026-04-26 19:04 -29.72308 162.67670 37153 ft 475 kts 59°
2026-04-26 19:05 -29.67924 162.77851 37153 ft 476 kts 59°
2026-04-26 19:06 -29.64985 162.84664 37158 ft 476 kts 59°
2026-04-26 19:06 -29.62041 162.91472 37158 ft 476 kts 59°
2026-04-26 19:07 -29.59094 162.98279 37152 ft 476 kts 59°
2026-04-26 19:07 -29.56157 163.05047 37152 ft 477 kts 59°
2026-04-26 19:08 -29.53193 163.11867 37152 ft 477 kts 59°
2026-04-26 19:08 -29.50227 163.18682 37144 ft 477 kts 59°
2026-04-26 19:09 -29.47256 163.25495 37142 ft 477 kts 59°
2026-04-26 19:09 -29.44299 163.32262 37139 ft 478 kts 58°
2026-04-26 19:10 -29.41317 163.39076 37144 ft 479 kts 58°
2026-04-26 19:10 -29.38325 163.45900 37142 ft 479 kts 58°
2026-04-26 19:11 -29.35330 163.52720 37121 ft 479 kts 58°
2026-04-26 19:11 -29.32347 163.59499 37137 ft 480 kts 58°
2026-04-26 19:12 -29.29335 163.66335 37127 ft 481 kts 58°
2026-04-26 19:12 -29.26318 163.73169 37132 ft 481 kts 58°
2026-04-26 19:13 -29.23297 163.80001 37135 ft 481 kts 58°
2026-04-26 19:13 -29.20270 163.86834 37135 ft 481 kts 58°
2026-04-26 19:14 -29.17265 163.93606 37128 ft 481 kts 58°
2026-04-26 19:14 -29.14232 164.00429 37127 ft 481 kts 58°
2026-04-26 19:15 -29.11194 164.07250 37131 ft 482 kts 58°
2026-04-26 19:15 -29.08146 164.14083 37127 ft 482 kts 58°
2026-04-26 19:16 -29.05116 164.20863 37124 ft 482 kts 57°
2026-04-26 19:16 -29.02066 164.27678 37125 ft 482 kts 57°
2026-04-26 19:17 -28.99009 164.34496 37120 ft 482 kts 57°
2026-04-26 19:17 -28.95947 164.41313 37120 ft 482 kts 57°
2026-04-26 19:18 -28.92905 164.48074 37116 ft 482 kts 57°
2026-04-26 19:18 -28.89834 164.54887 37119 ft 483 kts 57°
2026-04-26 19:19 -28.86749 164.61719 37116 ft 485 kts 57°
2026-04-26 19:19 -28.83659 164.68554 37116 ft 485 kts 57°
2026-04-26 19:20 -28.80587 164.75335 37113 ft 485 kts 57°
2026-04-26 19:20 -28.77488 164.82165 37113 ft 485 kts 57°
2026-04-26 19:21 -28.74389 164.88983 37110 ft 485 kts 57°
2026-04-26 19:21 -28.71282 164.95806 37108 ft 485 kts 57°
2026-04-26 19:22 -28.68197 165.02570 37099 ft 485 kts 56°
2026-04-26 19:22 -28.65069 165.09413 37106 ft 489 kts 56°
2026-04-26 19:23 -28.61927 165.16281 37096 ft 489 kts 56°
2026-04-26 19:23 -28.58782 165.23143 37108 ft 489 kts 56°
2026-04-26 19:24 -28.55652 165.29958 37115 ft 489 kts 56°
2026-04-26 19:24 -28.50925 165.40232 37100 ft 489 kts 56°
2026-04-26 19:25 -28.48833 165.44770 37099 ft 489 kts 56°
2026-04-26 19:25 -28.44604 165.53926 37097 ft 490 kts 55°
2026-04-26 19:26 -28.41440 165.60762 37095 ft 493 kts 55°
2026-04-26 19:26 -28.38244 165.67660 37094 ft 493 kts 55°
2026-04-26 19:27 -28.35046 165.74549 37091 ft 493 kts 55°
2026-04-26 19:27 -28.31845 165.81433 37089 ft 493 kts 55°
2026-04-26 19:28 -28.28661 165.88268 37091 ft 493 kts 55°
2026-04-26 19:28 -28.25453 165.95143 37088 ft 493 kts 55°
2026-04-26 19:29 -28.22241 166.02016 37070 ft 493 kts 54°
2026-04-26 19:29 -28.19010 166.08914 37084 ft 497 kts 54°
2026-04-26 19:30 -28.15788 166.15787 37081 ft 497 kts 54°
2026-04-26 19:30 -28.13615 166.20415 37081 ft 498 kts 54°
2026-04-26 19:31 -28.09281 166.29628 37076 ft 498 kts 54°
2026-04-26 19:31 -28.06019 166.36550 37073 ft 498 kts 54°
2026-04-26 19:32 -28.02755 166.43464 37078 ft 498 kts 54°
2026-04-26 19:32 -27.99510 166.50328 37080 ft 498 kts 54°
2026-04-26 19:33 -27.96226 166.57258 37073 ft 502 kts 53°
2026-04-26 19:33 -27.92914 166.64236 37070 ft 504 kts 53°
2026-04-26 19:34 -27.89600 166.71213 37068 ft 504 kts 53°
2026-04-26 19:34 -27.86304 166.78137 37070 ft 503 kts 53°
2026-04-26 19:35 -27.82984 166.85101 37065 ft 503 kts 53°
2026-04-26 19:35 -27.79658 166.92064 37061 ft 504 kts 53°
2026-04-26 19:36 -27.77452 166.96675 37062 ft 504 kts 53°
2026-04-26 19:36 -27.73014 167.05939 37062 ft 506 kts 52°
2026-04-26 19:37 -27.69641 167.12961 37056 ft 510 kts 52°
2026-04-26 19:37 -27.66262 167.19993 37056 ft 510 kts 52°
2026-04-26 19:38 -27.62880 167.27018 37056 ft 509 kts 52°
2026-04-26 19:38 -27.59518 167.33987 37053 ft 509 kts 52°
2026-04-26 19:39 -27.56129 167.41001 37056 ft 509 kts 52°
2026-04-26 19:39 -27.52736 167.48011 37056 ft 509 kts 52°
2026-04-26 19:40 -27.49340 167.55016 37023 ft 510 kts 51°
2026-04-26 19:40 -27.45919 167.62055 37037 ft 514 kts 51°
2026-04-26 19:41 -27.42502 167.69079 37046 ft 515 kts 51°
2026-04-26 19:41 -27.40201 167.73807 37045 ft 515 kts 51°
2026-04-26 19:42 -27.35608 167.83222 37045 ft 515 kts 51°
2026-04-26 19:42 -27.32158 167.90280 37044 ft 515 kts 51°
2026-04-26 19:43 -27.28724 167.97294 37043 ft 515 kts 51°
2026-04-26 19:43 -27.25264 168.04348 37045 ft 515 kts 51°
2026-04-26 19:44 -27.21800 168.11400 37037 ft 515 kts 51°
2026-04-26 19:44 -27.18332 168.18447 37031 ft 515 kts 51°
2026-04-26 19:45 -27.14884 168.25444 37035 ft 515 kts 51°
2026-04-26 19:45 -27.11404 168.32491 37038 ft 517 kts 51°
2026-04-26 19:46 -27.07921 168.39536 37033 ft 517 kts 51°
2026-04-26 19:46 -27.05015 168.45404 37029 ft 517 kts 51°
2026-04-26 19:47 -27.02110 168.51262 37030 ft 517 kts 51°
2026-04-26 19:47 -26.97445 168.60651 37027 ft 520 kts 51°
2026-04-26 19:48 -26.94482 168.66602 37028 ft 522 kts 51°
2026-04-26 19:48 -26.90968 168.73657 37028 ft 522 kts 51°
2026-04-26 19:49 -26.87427 168.80752 37029 ft 522 kts 51°
2026-04-26 19:49 -26.83880 168.87846 37029 ft 522 kts 51°
2026-04-26 19:50 -26.80355 168.94884 37029 ft 522 kts 51°
2026-04-26 19:50 -26.76804 169.01964 37026 ft 522 kts 51°
2026-04-26 19:51 -26.73248 169.09042 37018 ft 522 kts 50°
2026-04-26 19:51 -26.69686 169.16119 37028 ft 522 kts 50°
2026-04-26 19:52 -26.66122 169.23190 37023 ft 522 kts 50°
2026-04-26 19:52 -26.62553 169.30259 37023 ft 522 kts 50°
2026-04-26 19:53 -26.59006 169.37275 37018 ft 522 kts 50°
2026-04-26 19:53 -26.55431 169.44333 37011 ft 522 kts 50°
2026-04-26 19:54 -26.51849 169.51393 37017 ft 523 kts 50°
2026-04-26 19:54 -26.48261 169.58455 36983 ft 523 kts 50°
2026-04-26 19:55 -26.44694 169.65464 37018 ft 523 kts 50°
2026-04-26 19:55 -26.41099 169.72517 37022 ft 523 kts 50°
2026-04-26 19:56 -26.37501 169.79566 37004 ft 523 kts 50°
2026-04-26 19:56 -26.33900 169.86609 37008 ft 523 kts 50°
2026-04-26 19:57 -26.30292 169.93653 37009 ft 523 kts 50°
2026-04-26 19:57 -26.26710 170.00638 37002 ft 523 kts 50°
2026-04-26 19:58 -26.23098 170.07668 37004 ft 523 kts 50°
2026-04-26 19:58 -26.19491 170.14679 37002 ft 522 kts 50°
2026-04-26 19:59 -26.15876 170.21693 36996 ft 522 kts 50°
2026-04-26 19:59 -26.12285 170.28651 36996 ft 522 kts 50°
2026-04-26 20:00 -26.08668 170.35647 36999 ft 522 kts 50°
2026-04-26 20:00 -26.05047 170.42641 36992 ft 522 kts 50°
2026-04-26 20:01 -26.01422 170.49632 36990 ft 522 kts 50°
2026-04-26 20:01 -25.97796 170.56614 36992 ft 522 kts 50°
2026-04-26 20:02 -25.94193 170.63541 36967 ft 521 kts 50°
2026-04-26 20:02 -25.91180 170.69327 36987 ft 520 kts 50°
2026-04-26 20:03 -25.86946 170.77442 36981 ft 519 kts 50°
2026-04-26 20:03 -25.83321 170.84378 36981 ft 519 kts 50°
2026-04-26 20:04 -25.79715 170.91268 36968 ft 519 kts 50°
2026-04-26 20:04 -25.76087 170.98191 36974 ft 519 kts 50°
2026-04-26 20:05 -25.72454 171.05113 36980 ft 519 kts 50°
2026-04-26 20:05 -25.68818 171.12028 36977 ft 519 kts 49°
2026-04-26 20:06 -25.65206 171.18890 36969 ft 518 kts 50°
2026-04-26 20:06 -25.61575 171.25776 36969 ft 517 kts 49°
2026-04-26 20:07 -25.57940 171.32658 36967 ft 517 kts 49°
2026-04-26 20:07 -25.54300 171.39541 36971 ft 518 kts 49°
2026-04-26 20:08 -25.50684 171.46369 36965 ft 518 kts 49°
2026-04-26 20:08 -25.47040 171.53239 36966 ft 517 kts 49°
2026-04-26 20:09 -25.43393 171.60103 36966 ft 517 kts 49°
2026-04-26 20:09 -25.39745 171.66961 36926 ft 517 kts 49°
2026-04-26 20:10 -25.36097 171.73808 36969 ft 516 kts 49°
2026-04-26 20:10 -25.32473 171.80600 36963 ft 516 kts 49°
2026-04-26 20:11 -25.28825 171.87426 36970 ft 516 kts 49°
2026-04-26 20:12 -25.23347 171.97659 36969 ft 516 kts 49°
2026-04-26 20:12 -25.19692 172.04474 36970 ft 516 kts 49°
2026-04-26 20:13 -25.16050 172.11255 36955 ft 517 kts 49°
2026-04-26 20:13 -25.12380 172.18078 36967 ft 517 kts 49°
2026-04-26 20:14 -25.08716 172.24882 36963 ft 515 kts 49°
2026-04-26 20:14 -25.05054 172.31672 36961 ft 514 kts 49°
2026-04-26 20:15 -25.01391 172.38451 36956 ft 514 kts 49°
2026-04-26 20:15 -24.97751 172.45179 36959 ft 514 kts 49°
2026-04-26 20:16 -24.94087 172.51943 36958 ft 514 kts 49°
2026-04-26 20:16 -24.90418 172.58706 36958 ft 514 kts 49°
2026-04-26 20:17 -24.86747 172.65464 36954 ft 514 kts 49°
2026-04-26 20:17 -24.83097 172.72172 36926 ft 514 kts 49°
2026-04-26 20:18 -24.79436 172.78895 36957 ft 511 kts 49°
2026-04-26 20:18 -24.75784 172.85588 36958 ft 510 kts 49°
2026-04-26 20:19 -24.72131 172.92272 36959 ft 510 kts 49°
2026-04-26 20:19 -24.68500 172.98907 36957 ft 510 kts 49°
2026-04-26 20:20 -24.64844 173.05581 36955 ft 510 kts 49°
2026-04-26 20:20 -24.61185 173.12250 36958 ft 510 kts 49°
2026-04-26 20:21 -24.57520 173.18920 36959 ft 510 kts 49°
2026-04-26 20:21 -24.53848 173.25593 36957 ft 510 kts 49°
2026-04-26 20:22 -24.50175 173.32260 36960 ft 510 kts 49°
2026-04-26 20:22 -24.46525 173.38877 36955 ft 510 kts 49°
2026-04-26 20:23 -24.42844 173.45539 36957 ft 510 kts 49°
2026-04-26 20:23 -24.39163 173.52195 36958 ft 510 kts 49°
2026-04-26 20:24 -24.35477 173.58848 36957 ft 510 kts 49°
2026-04-26 20:24 -24.31812 173.65455 36958 ft 510 kts 49°
2026-04-26 20:25 -24.28120 173.72101 36957 ft 510 kts 49°
2026-04-26 20:25 -24.24425 173.78745 36953 ft 510 kts 49°
2026-04-26 20:26 -24.20743 173.85357 36961 ft 508 kts 49°
2026-04-26 20:26 -24.17087 173.91911 36948 ft 507 kts 49°
2026-04-26 20:27 -24.13407 173.98499 36950 ft 508 kts 49°
2026-04-26 20:27 -24.09719 174.05094 36957 ft 508 kts 49°
2026-04-26 20:28 -24.06031 174.11679 36958 ft 508 kts 49°
2026-04-26 20:28 -24.02339 174.18264 36958 ft 508 kts 49°
2026-04-26 20:29 -23.98645 174.24843 36953 ft 507 kts 49°
2026-04-26 20:29 -23.94975 174.31369 36947 ft 507 kts 49°
2026-04-26 20:30 -23.91278 174.37938 36953 ft 507 kts 49°
2026-04-26 20:30 -23.87585 174.44489 36962 ft 506 kts 49°
2026-04-26 20:31 -23.83886 174.51040 36958 ft 506 kts 49°
2026-04-26 20:31 -23.80212 174.57541 36956 ft 506 kts 49°
2026-04-26 20:32 -23.76510 174.64081 36948 ft 506 kts 49°
2026-04-26 20:32 -23.72806 174.70618 36949 ft 506 kts 49°
2026-04-26 20:33 -23.69123 174.77108 36948 ft 506 kts 49°
2026-04-26 20:33 -23.65415 174.83635 36925 ft 506 kts 49°
2026-04-26 20:34 -23.61706 174.90155 36947 ft 505 kts 49°
2026-04-26 20:34 -23.58003 174.96656 36947 ft 505 kts 49°
2026-04-26 20:35 -23.54320 175.03111 36945 ft 505 kts 49°
2026-04-26 20:35 -23.50613 175.09602 36947 ft 504 kts 50°
2026-04-26 20:36 -23.46908 175.16082 36943 ft 504 kts 49°
2026-04-26 20:36 -23.43200 175.22557 36944 ft 504 kts 49°
2026-04-26 20:37 -23.39514 175.28985 36947 ft 504 kts 49°
2026-04-26 20:37 -23.35802 175.35451 36919 ft 504 kts 50°
2026-04-26 20:38 -23.32088 175.41913 36945 ft 504 kts 50°
2026-04-26 20:38 -23.28371 175.48372 36945 ft 503 kts 50°
2026-04-26 20:39 -23.24655 175.54820 36944 ft 503 kts 50°
2026-04-26 20:39 -23.20963 175.61219 36945 ft 503 kts 50°
2026-04-26 20:40 -23.17243 175.67658 36942 ft 503 kts 50°
2026-04-26 20:40 -23.13520 175.74094 36941 ft 503 kts 50°
2026-04-26 20:41 -23.09794 175.80527 36940 ft 503 kts 50°
2026-04-26 20:41 -23.06093 175.86910 36942 ft 503 kts 50°
2026-04-26 20:42 -23.02370 175.93323 36938 ft 502 kts 50°
2026-04-26 20:42 -22.98648 175.99725 36941 ft 501 kts 50°
2026-04-26 20:43 -22.94926 176.06120 36940 ft 501 kts 50°
2026-04-26 20:43 -22.91228 176.12464 36936 ft 501 kts 50°
2026-04-26 20:44 -22.87500 176.18854 36944 ft 501 kts 50°
2026-04-26 20:44 -22.83776 176.25229 36938 ft 500 kts 50°
2026-04-26 20:45 -22.80059 176.31584 36938 ft 499 kts 50°
2026-04-26 20:45 -22.76363 176.37895 36938 ft 499 kts 50°
2026-04-26 20:46 -22.72641 176.44243 36938 ft 499 kts 51°
2026-04-26 20:46 -22.68923 176.50576 36939 ft 498 kts 51°
2026-04-26 20:47 -22.65206 176.56900 36935 ft 498 kts 50°
2026-04-26 20:47 -22.61483 176.63225 36936 ft 498 kts 50°
2026-04-26 20:48 -22.57785 176.69502 36932 ft 498 kts 50°
2026-04-26 20:48 -22.54060 176.75817 36933 ft 498 kts 50°
2026-04-26 20:49 -22.50332 176.82129 36935 ft 498 kts 50°
2026-04-26 20:49 -22.46601 176.88439 36936 ft 498 kts 50°
2026-04-26 20:50 -22.42866 176.94746 36932 ft 498 kts 50°
2026-04-26 20:50 -22.39159 177.01001 36934 ft 497 kts 51°
2026-04-26 20:51 -22.35434 177.07278 36938 ft 496 kts 51°
2026-04-26 20:51 -22.31709 177.13548 36941 ft 496 kts 51°
2026-04-26 20:52 -22.27979 177.19819 36941 ft 496 kts 51°
2026-04-26 20:52 -22.24275 177.26039 36941 ft 496 kts 51°
2026-04-26 20:53 -22.20542 177.32298 36941 ft 496 kts 51°
2026-04-26 20:53 -22.16809 177.38553 36941 ft 495 kts 51°
2026-04-26 20:54 -22.13088 177.44780 36941 ft 493 kts 51°
2026-04-26 20:54 -22.09390 177.50960 36937 ft 493 kts 51°
2026-04-26 20:55 -22.05669 177.57171 36943 ft 493 kts 51°
2026-04-26 20:55 -22.01944 177.63384 36938 ft 493 kts 51°
2026-04-26 20:56 -21.98220 177.69586 36935 ft 493 kts 51°
2026-04-26 20:56 -21.94519 177.75743 36936 ft 492 kts 51°
2026-04-26 20:57 -21.90800 177.81924 36938 ft 491 kts 51°
2026-04-26 20:57 -21.87083 177.88093 36939 ft 491 kts 51°
2026-04-26 20:58 -21.83362 177.94262 36935 ft 491 kts 51°
2026-04-26 20:58 -21.79639 178.00427 36937 ft 491 kts 51°
2026-04-26 20:59 -21.75941 178.06546 36934 ft 490 kts 51°
2026-04-26 20:59 -21.72226 178.12684 36944 ft 489 kts 51°
2026-04-26 21:00 -21.68515 178.18809 36934 ft 489 kts 51°
2026-04-26 21:00 -21.64802 178.24928 36934 ft 489 kts 51°
2026-04-26 21:01 -21.61109 178.31011 36939 ft 489 kts 51°
2026-04-26 21:01 -21.57391 178.37127 36929 ft 489 kts 51°
2026-04-26 21:02 -21.53672 178.43240 36942 ft 489 kts 51°
2026-04-26 21:02 -21.49974 178.49308 36930 ft 489 kts 51°
2026-04-26 21:03 -21.46247 178.55420 36939 ft 489 kts 51°
2026-04-26 21:03 -21.42520 178.61523 36947 ft 489 kts 51°
2026-04-26 21:04 -21.38786 178.67632 36943 ft 489 kts 51°
2026-04-26 21:04 -21.35052 178.73734 36942 ft 489 kts 51°
2026-04-26 21:05 -21.31340 178.79792 36938 ft 489 kts 51°
2026-04-26 21:05 -21.27602 178.85888 36934 ft 489 kts 51°
2026-04-26 21:06 -21.23866 178.91974 36937 ft 488 kts 51°
2026-04-26 21:06 -21.20137 178.98040 36934 ft 487 kts 51°
2026-04-26 21:07 -21.16431 179.04063 36938 ft 487 kts 51°
2026-04-26 21:07 -21.12696 179.10126 36926 ft 487 kts 51°
2026-04-26 21:08 -21.08962 179.16181 36941 ft 487 kts 51°
2026-04-26 21:08 -21.05249 179.22197 36940 ft 487 kts 51°
2026-04-26 21:09 -21.01510 179.28247 36936 ft 487 kts 51°
2026-04-26 21:09 -20.97771 179.34292 36940 ft 487 kts 51°
2026-04-26 21:10 -20.94027 179.40338 36941 ft 487 kts 51°
2026-04-26 21:10 -20.90306 179.46339 36937 ft 487 kts 51°
2026-04-26 21:11 -20.86560 179.52376 36941 ft 487 kts 51°
2026-04-26 21:11 -20.82811 179.58410 36944 ft 487 kts 51°
2026-04-26 21:12 -20.79061 179.64440 36940 ft 487 kts 52°
2026-04-26 21:12 -20.75340 179.70417 36944 ft 486 kts 52°
2026-04-26 21:13 -20.71599 179.76419 36943 ft 486 kts 52°
2026-04-26 21:13 -20.67851 179.82427 36943 ft 486 kts 51°
2026-04-26 21:14 -20.64102 179.88429 36943 ft 486 kts 51°
2026-04-26 21:14 -20.60375 179.94390 36943 ft 486 kts 51°
2026-04-26 21:15 -20.56623 -179.99614 36945 ft 486 kts 51°
2026-04-26 21:15 -20.52868 -179.93620 36943 ft 486 kts 51°
2026-04-26 21:16 -20.49111 -179.87630 36945 ft 486 kts 51°
2026-04-26 21:16 -20.45351 -179.81640 36941 ft 486 kts 52°
2026-04-26 21:17 -20.41621 -179.75705 36942 ft 485 kts 52°
2026-04-26 21:17 -20.37864 -179.69733 36943 ft 485 kts 52°
2026-04-26 21:18 -20.34106 -179.63766 36950 ft 485 kts 52°
2026-04-26 21:18 -20.30346 -179.57800 36942 ft 485 kts 52°
2026-04-26 21:19 -20.26607 -179.51875 36941 ft 485 kts 51°
2026-04-26 21:19 -20.22842 -179.45915 36941 ft 485 kts 51°
2026-04-26 21:20 -20.19073 -179.39954 36940 ft 485 kts 51°
2026-04-26 21:20 -20.15304 -179.34000 36939 ft 485 kts 51°
2026-04-26 21:21 -20.11560 -179.28091 36942 ft 485 kts 52°
2026-04-26 21:21 -20.07790 -179.22145 36936 ft 485 kts 52°
2026-04-26 21:22 -20.04014 -179.16198 36940 ft 485 kts 52°
2026-04-26 21:22 -20.00243 -179.10264 36942 ft 484 kts 52°
2026-04-26 21:23 -19.94606 -179.01405 36945 ft 484 kts 52°
2026-04-26 21:23 -19.90827 -178.95473 36948 ft 484 kts 52°
2026-04-26 21:24 -19.87050 -178.89551 36942 ft 484 kts 52°
2026-04-26 21:24 -19.83268 -178.83626 36942 ft 484 kts 52°
2026-04-26 21:25 -19.79517 -178.77756 36943 ft 484 kts 52°
2026-04-26 21:25 -19.75744 -178.71856 36950 ft 482 kts 52°
2026-04-26 21:26 -19.71974 -178.65969 36933 ft 482 kts 52°
2026-04-26 21:26 -19.68209 -178.60094 36951 ft 482 kts 52°
2026-04-26 21:27 -19.64463 -178.54254 36950 ft 482 kts 52°
2026-04-26 21:27 -19.60692 -178.48382 36953 ft 482 kts 52°
2026-04-26 21:28 -19.56917 -178.42508 36947 ft 481 kts 53°
2026-04-26 21:28 -19.53154 -178.36660 36941 ft 480 kts 53°
2026-04-26 21:29 -19.49390 -178.30815 36947 ft 480 kts 53°
2026-04-26 21:29 -19.45646 -178.25007 36939 ft 480 kts 53°
2026-04-26 21:30 -19.41883 -178.19174 36950 ft 478 kts 53°
2026-04-26 21:30 -19.38132 -178.13366 36951 ft 477 kts 53°
2026-04-26 21:31 -19.34380 -178.07562 36944 ft 477 kts 53°
2026-04-26 21:31 -19.30659 -178.01812 36950 ft 476 kts 53°
2026-04-26 21:32 -19.26918 -177.96035 36952 ft 476 kts 53°
2026-04-26 21:32 -19.23177 -177.90265 36951 ft 476 kts 53°
2026-04-26 21:33 -19.19432 -177.84495 36944 ft 476 kts 53°
2026-04-26 21:33 -19.15712 -177.78767 36948 ft 476 kts 53°
2026-04-26 21:34 -19.11963 -177.73000 36952 ft 476 kts 53°
2026-04-26 21:34 -19.08213 -177.67237 36949 ft 475 kts 53°
2026-04-26 21:35 -19.04466 -177.61484 36947 ft 475 kts 53°
2026-04-26 21:35 -19.00740 -177.55769 36947 ft 475 kts 53°
2026-04-26 21:36 -18.97596 -177.50949 36954 ft 475 kts 53°
2026-04-26 21:36 -18.93232 -177.44268 36948 ft 475 kts 53°
2026-04-26 21:37 -18.89476 -177.38522 36951 ft 475 kts 53°
2026-04-26 21:37 -18.85718 -177.32780 36947 ft 475 kts 53°
2026-04-26 21:38 -18.81987 -177.27083 36955 ft 474 kts 53°
2026-04-26 21:38 -18.78241 -177.21367 36950 ft 474 kts 53°
2026-04-26 21:39 -18.74488 -177.15649 36947 ft 474 kts 53°
2026-04-26 21:39 -18.70761 -177.09972 36950 ft 474 kts 53°
2026-04-26 21:40 -18.67008 -177.04263 36953 ft 474 kts 53°
2026-04-26 21:40 -18.63255 -176.98558 36953 ft 474 kts 53°
2026-04-26 21:41 -18.59496 -176.92850 36953 ft 474 kts 53°
2026-04-26 21:41 -18.55741 -176.87152 36952 ft 473 kts 53°
2026-04-26 21:42 -18.52013 -176.81502 36953 ft 473 kts 53°
2026-04-26 21:42 -18.48254 -176.75808 36951 ft 473 kts 53°
2026-04-26 21:43 -18.44498 -176.70124 36954 ft 473 kts 53°
2026-04-26 21:43 -18.40737 -176.64438 36955 ft 473 kts 53°
2026-04-26 21:44 -18.36972 -176.58752 36952 ft 474 kts 53°
2026-04-26 21:44 -18.33221 -176.53090 36952 ft 474 kts 53°
2026-04-26 21:45 -18.29446 -176.47398 36954 ft 474 kts 53°
2026-04-26 21:45 -18.25673 -176.41714 36954 ft 474 kts 53°
2026-04-26 21:46 -18.21896 -176.36029 36955 ft 474 kts 53°
2026-04-26 21:46 -18.18144 -176.30386 36955 ft 474 kts 53°
2026-04-26 21:47 -18.14364 -176.24705 36955 ft 474 kts 53°
2026-04-26 21:47 -18.10579 -176.19023 36955 ft 474 kts 53°
2026-04-26 21:48 -18.06796 -176.13349 36952 ft 474 kts 53°
2026-04-26 21:48 -18.03042 -176.07723 36952 ft 473 kts 53°
2026-04-26 21:49 -17.99262 -176.02063 36955 ft 473 kts 53°
2026-04-26 21:49 -17.95479 -175.96404 36949 ft 473 kts 53°
2026-04-26 21:50 -17.92332 -175.91700 36953 ft 473 kts 53°
2026-04-26 21:50 -17.87933 -175.85129 36955 ft 473 kts 53°
2026-04-26 21:51 -17.84148 -175.79481 36953 ft 473 kts 53°
2026-04-26 21:51 -17.80358 -175.73830 36949 ft 473 kts 53°
2026-04-26 21:52 -17.76568 -175.68184 36955 ft 473 kts 53°
2026-04-26 21:52 -17.72804 -175.62581 36955 ft 473 kts 53°
2026-04-26 21:53 -17.69008 -175.56936 36939 ft 473 kts 54°
2026-04-26 21:53 -17.65206 -175.51286 36953 ft 475 kts 54°
2026-04-26 21:54 -17.61393 -175.45625 36950 ft 475 kts 54°
2026-04-26 21:54 -17.57602 -175.40002 36955 ft 475 kts 54°
2026-04-26 21:55 -17.53794 -175.34357 36953 ft 474 kts 54°
2026-04-26 21:55 -17.49988 -175.28720 36952 ft 474 kts 54°
2026-04-26 21:56 -17.46180 -175.23086 36954 ft 474 kts 54°
2026-04-26 21:56 -17.42398 -175.17494 36951 ft 474 kts 54°
2026-04-26 21:57 -17.38585 -175.11861 36946 ft 474 kts 54°
2026-04-26 21:57 -17.34772 -175.06234 36948 ft 474 kts 53°
2026-04-26 21:58 -17.30961 -175.00612 36948 ft 473 kts 53°
2026-04-26 21:58 -17.27184 -174.95047 36950 ft 472 kts 53°
2026-04-26 21:59 -17.23385 -174.89454 36946 ft 471 kts 53°
2026-04-26 21:59 -17.19586 -174.83864 36947 ft 471 kts 53°
2026-04-26 22:00 -17.15808 -174.78312 36949 ft 472 kts 53°
2026-04-26 22:00 -17.12006 -174.72727 36949 ft 472 kts 53°
2026-04-26 22:01 -17.08201 -174.67143 36947 ft 472 kts 53°
2026-04-26 22:01 -17.04395 -174.61562 36947 ft 472 kts 53°
2026-04-26 22:02 -17.01228 -174.56920 36944 ft 472 kts 53°
2026-04-26 22:02 -16.96797 -174.50433 36937 ft 472 kts 53°
2026-04-26 22:03 -16.92988 -174.44862 36944 ft 471 kts 53°
2026-04-26 22:03 -16.89178 -174.39292 36944 ft 471 kts 53°
2026-04-26 22:04 -16.85370 -174.33730 36941 ft 471 kts 53°
2026-04-26 22:04 -16.81558 -174.28167 36941 ft 471 kts 53°
2026-04-26 22:05 -16.77770 -174.22643 36944 ft 472 kts 53°
2026-04-26 22:05 -16.73950 -174.17077 36944 ft 472 kts 53°
2026-04-26 22:06 -16.70123 -174.11506 36941 ft 472 kts 53°
2026-04-26 22:06 -16.66299 -174.05943 36938 ft 472 kts 53°
2026-04-26 22:07 -16.62499 -174.00419 36939 ft 472 kts 53°
2026-04-26 22:07 -16.59319 -173.95799 36938 ft 472 kts 53°
2026-04-26 22:08 -16.54847 -173.89309 36939 ft 472 kts 53°
2026-04-26 22:08 -16.51010 -173.83744 36933 ft 473 kts 53°
2026-04-26 22:09 -16.47195 -173.78216 36936 ft 473 kts 53°
2026-04-26 22:09 -16.43354 -173.72654 36936 ft 473 kts 53°
2026-04-26 22:10 -16.39512 -173.67095 36933 ft 473 kts 53°
2026-04-26 22:10 -16.35670 -173.61542 36933 ft 473 kts 53°
2026-04-26 22:11 -16.31824 -173.55985 36933 ft 473 kts 53°
2026-04-26 22:11 -16.28005 -173.50472 36933 ft 473 kts 53°
2026-04-26 22:12 -16.24155 -173.44919 36928 ft 473 kts 53°
2026-04-26 22:12 -16.20308 -173.39375 36930 ft 471 kts 53°
2026-04-26 22:13 -16.16499 -173.33888 36930 ft 471 kts 53°
2026-04-26 22:13 -16.12660 -173.28364 36930 ft 471 kts 53°
2026-04-26 22:14 -16.08818 -173.22839 36928 ft 471 kts 53°
2026-04-26 22:14 -16.04976 -173.17319 36928 ft 471 kts 53°
2026-04-26 22:15 -16.01134 -173.11801 36928 ft 471 kts 53°
2026-04-26 22:15 -15.97322 -173.06333 36927 ft 470 kts 53°
2026-04-26 22:16 -15.93486 -173.00833 36925 ft 470 kts 53°
2026-04-26 22:16 -15.89649 -172.95336 36925 ft 470 kts 53°
2026-04-26 22:17 -15.85811 -172.89841 36923 ft 469 kts 53°
2026-04-26 22:17 -15.82009 -172.84402 36925 ft 468 kts 53°
2026-04-26 22:18 -15.78181 -172.78930 36923 ft 468 kts 53°
2026-04-26 22:18 -15.74352 -172.73461 36922 ft 469 kts 53°
2026-04-26 22:19 -15.70521 -172.67992 36921 ft 469 kts 53°
2026-04-26 22:19 -15.66682 -172.62516 36922 ft 469 kts 53°
2026-04-26 22:20 -15.63495 -172.57974 36920 ft 469 kts 53°
2026-04-26 22:20 -15.59037 -172.51624 36919 ft 469 kts 53°
2026-04-26 22:21 -15.55197 -172.46158 36919 ft 469 kts 53°
2026-04-26 22:21 -15.51356 -172.40697 36920 ft 469 kts 53°
2026-04-26 22:22 -15.47514 -172.35236 36914 ft 468 kts 54°
2026-04-26 22:22 -15.43715 -172.29841 36916 ft 467 kts 54°
2026-04-26 22:23 -15.39890 -172.24412 36754 ft 464 kts 54°
2026-04-26 22:23 -15.37992 -172.21720 36232 ft 463 kts 54°
2026-04-26 22:23 -15.36075 -172.19003 35278 ft 473 kts 53°
2026-04-26 22:24 -15.34120 -172.16232 34484 ft 478 kts 53°
2026-04-26 22:24 -15.32145 -172.13433 33623 ft 484 kts 53°
2026-04-26 22:24 -15.30148 -172.10605 32727 ft 489 kts 53°
2026-04-26 22:24 -15.28161 -172.07793 31893 ft 492 kts 53°
2026-04-26 22:25 -15.26149 -172.04945 31372 ft 488 kts 52°
2026-04-26 22:25 -15.24150 -172.02116 30730 ft 486 kts 52°
2026-04-26 22:25 -15.22151 -171.99288 30093 ft 485 kts 53°
2026-04-26 22:25 -15.20165 -171.96480 29447 ft 482 kts 52°
2026-04-26 22:26 -15.18193 -171.93693 28925 ft 476 kts 52°
2026-04-26 22:26 -15.16245 -171.90942 28334 ft 472 kts 53°
2026-04-26 22:26 -15.14312 -171.88212 27749 ft 468 kts 53°
2026-04-26 22:26 -15.12430 -171.85556 27341 ft 460 kts 53°
2026-04-26 22:27 -15.10543 -171.82892 26778 ft 457 kts 53°
2026-04-26 22:27 -15.08672 -171.80253 26234 ft 453 kts 53°
2026-04-26 22:27 -15.06813 -171.77631 25668 ft 450 kts 53°
2026-04-26 22:27 -15.04979 -171.75046 25212 ft 444 kts 53°
2026-04-26 22:28 -15.03151 -171.72469 24662 ft 441 kts 53°
2026-04-26 22:28 -15.01340 -171.69919 24166 ft 437 kts 53°
2026-04-26 22:28 -14.99553 -171.67401 23724 ft 431 kts 53°
2026-04-26 22:28 -14.97791 -171.64921 22869 ft 426 kts 53°
2026-04-26 22:29 -14.96630 -171.63287 22258 ft 424 kts 53°
2026-04-26 22:29 -14.94902 -171.60855 21536 ft 415 kts 54°
2026-04-26 22:29 -14.92667 -171.57711 20383 ft 408 kts 54°
2026-04-26 22:29 -14.90994 -171.55360 19642 ft 402 kts 54°
2026-04-26 22:30 -14.89363 -171.53067 18981 ft 392 kts 54°
2026-04-26 22:30 -14.87755 -171.50806 18080 ft 391 kts 55°
2026-04-26 22:30 -14.86688 -171.49307 17475 ft 388 kts 54°
2026-04-26 22:30 -14.85111 -171.47092 16846 ft 377 kts 55°
2026-04-26 22:31 -14.83568 -171.44926 15883 ft 375 kts 55°
2026-04-26 22:31 -14.82019 -171.42749 14981 ft 374 kts 55°
2026-04-26 22:31 -14.80007 -171.39926 14040 ft 364 kts 55°
2026-04-26 22:31 -14.78509 -171.37824 13201 ft 361 kts 55°
2026-04-26 22:32 -14.77044 -171.35770 12612 ft 349 kts 55°
2026-04-26 22:32 -14.76100 -171.34447 12252 ft 341 kts 54°
2026-04-26 22:32 -14.74704 -171.32489 11598 ft 334 kts 55°
2026-04-26 22:32 -14.73356 -171.30600 11255 ft 320 kts 55°
2026-04-26 22:33 -14.72053 -171.28774 10781 ft 312 kts 56°
2026-04-26 22:33 -14.69212 -171.24796 10162 ft 280 kts 56°
2026-04-26 22:33 -14.68046 -171.23160 9317 ft 287 kts 56°
2026-04-26 22:34 -14.67237 -171.22023 8657 ft 294 kts 56°
2026-04-26 22:34 -14.66001 -171.20289 7592 ft 305 kts 55°
2026-04-26 22:34 -14.64740 -171.18523 6505 ft 314 kts 55°
2026-04-26 22:34 -14.63429 -171.16688 5517 ft 317 kts 56°
2026-04-26 22:35 -14.62176 -171.14943 5266 ft 287 kts 56°
2026-04-26 22:35 -14.61048 -171.13372 5042 ft 259 kts 56°
2026-04-26 22:35 -14.60028 -171.11948 4869 ft 234 kts 56°
2026-04-26 22:35 -14.59108 -171.10664 4759 ft 211 kts 56°
2026-04-26 22:36 -14.58278 -171.09504 4646 ft 194 kts 56°
2026-04-26 22:36 -14.57229 -171.08032 4484 ft 192 kts 57°
2026-04-26 22:36 -14.56439 -171.06922 4380 ft 191 kts 56°
2026-04-26 22:36 -14.55918 -171.06191 4289 ft 191 kts 56°
2026-04-26 22:37 -14.55130 -171.05088 4168 ft 191 kts 56°
2026-04-26 22:37 -14.54343 -171.03988 4044 ft 191 kts 57°
2026-04-26 22:37 -14.53555 -171.02887 3923 ft 191 kts 56°
2026-04-26 22:37 -14.52768 -171.01787 3800 ft 190 kts 56°
2026-04-26 22:38 -14.51983 -171.00690 3683 ft 190 kts 56°
2026-04-26 22:38 -14.51204 -170.99603 3568 ft 187 kts 56°
2026-04-26 22:38 -14.50443 -170.98541 3447 ft 186 kts 57°
2026-04-26 22:38 -14.49672 -170.97465 3328 ft 187 kts 56°
2026-04-26 22:39 -14.48896 -170.96382 3214 ft 188 kts 57°
2026-04-26 22:39 -14.48084 -170.95325 3079 ft 188 kts 49°
2026-04-26 22:39 -14.47174 -170.94360 2929 ft 185 kts 51°
2026-04-26 22:39 -14.46419 -170.93361 2791 ft 169 kts 58°
2026-04-26 22:40 -14.45818 -170.92376 2655 ft 155 kts 62°
2026-04-26 22:40 -14.45276 -170.91457 2457 ft 146 kts 63°
2026-04-26 22:40 -14.44769 -170.90594 2312 ft 140 kts 61°
2026-04-26 22:40 -14.44263 -170.89736 2297 ft 140 kts 62°
2026-04-26 22:41 -14.43756 -170.88877 2299 ft 141 kts 62°
2026-04-26 22:41 -14.43238 -170.88004 2294 ft 143 kts 62°
2026-04-26 22:41 -14.42717 -170.87127 2295 ft 143 kts 60°
2026-04-26 22:41 -14.42196 -170.86254 2294 ft 142 kts 61°
2026-04-26 22:42 -14.41681 -170.85390 2291 ft 141 kts 62°
2026-04-26 22:42 -14.41167 -170.84526 2297 ft 141 kts 63°
2026-04-26 22:42 -14.40654 -170.83662 2291 ft 142 kts 61°
2026-04-26 22:42 -14.40140 -170.82796 2303 ft 144 kts 61°
2026-04-26 22:43 -14.39620 -170.81921 2246 ft 144 kts 60°
2026-04-26 22:43 -14.39095 -170.81040 2058 ft 144 kts 61°
2026-04-26 22:43 -14.38576 -170.80166 1870 ft 139 kts 61°
2026-04-26 22:43 -14.38093 -170.79356 1678 ft 128 kts 63°
2026-04-26 22:44 -14.37636 -170.78587 1478 ft 124 kts 62°
2026-04-26 22:44 -14.37184 -170.77827 1309 ft 125 kts 64°
2026-04-26 22:44 -14.36729 -170.77059 1135 ft 126 kts 64°
2026-04-26 22:44 -14.36274 -170.76294 970 ft 126 kts 64°
2026-04-26 22:45 -14.35816 -170.75528 808 ft 127 kts 59°
2026-04-26 22:45 -14.35367 -170.74758 568 ft 124 kts 63°
2026-04-26 22:45 -14.34919 -170.73978 491 ft 128 kts 57°
2026-04-26 22:45 -14.34442 -170.73225 253 ft 124 kts 59°
2026-04-26 22:46 -14.34016 -170.72470 66 ft 122 kts 60°
2026-04-26 22:46 -14.33614 -170.71765 11 ft 105 kts 60°
2026-04-26 22:46 -14.33368 -170.71304 7 ft 32 kts 62°
2026-04-26 22:46 -14.33298 -170.71187 7 ft 25 kts 59°
2026-04-26 22:47 -14.33208 -170.71033 8 ft 25 kts 58°
2026-04-26 22:47 -14.33085 -170.70981 9 ft 21 kts 328°
2026-04-26 22:47 -14.32969 -170.71073 9 ft 21 kts 321°
2026-04-26 22:47 -14.32895 -170.71136 10 ft 0 kts 337°
2026-04-26 22:48 -14.32880 -170.71131 10 ft 4 kts 30°
2026-04-26 22:48 -14.32871 -170.71127 10 ft 0 kts 23°